Regional Weather Roundup
Issued by NWS Binghamton, NY

Home | Current Version | Previous Version | Text Only | Print | Product List | Glossary On
Versions: 1 2 3 4 5 6 7 8 9 10 11 12 13 14 15 16 17 18 19 20 21 22 23 24 25 26 27 28 29 30 31 32 33 34 35 36 37 38 39 40 41 42 43 44 45 46 47 48 49 50
000
ASUS41 KBGM 270710
RWRBGM

REGIONAL WEATHER ROUNDUP
NATIONAL WEATHER SERVICE BINGHAMTON NY
200 AM EST MON FEB 27 2017

Note: "fair" indicates few or no clouds below 12,000 feet with no
significant weather and/or obstructions to visibility.

* = Station(s) that does not report precipitation, such as rain,
snow, etc, also no thunder or fog.

NYZ009-015>018-022>025-036-037-044>046-055>057-062-270800
...Central New York...

CITY           SKY/WX    TMP DP  RH WIND       PRES   REMARKS
Binghamton     CLEAR     26  14  60 SW12      30.14R WCI  16
Cortland       FAIR      32  19  59 SW7       30.14S WCI  26
Dansville      CLEAR     32  16  51 SE6       30.15R WCI  26
Elmira         CLEAR     22  15  75 NE3       30.17S
Seneca Falls   SUNNY     34  19  55 SW15      30.14S WCI  24
Ithaca         CLEAR     30  18  60 S14       30.15S WCI  19
Hamilton       CLEAR     28  16  59 SW3       30.14S
Monticello     CLEAR    N/A N/A N/A CALM      30.21R
Norwich        CLEAR     25  16  68 S6        30.18S WCI  18
Oneonta        CLEAR     27  14  59 SW9       30.13S WCI  17
Penn Yan       CLEAR     34  15  46 S16       30.13R WCI  24
Rome           PTCLDY    27  19  72 E8        30.15S WCI  19
Sidney         CLEAR     27  19  74 CALM      30.19R
Syracuse       CLEAR     33  17  51 SW14G26   30.11S WCI  23
$$

PAZ038>040-043-044-047-048-072-270800
...Northeast Pennsylvania...

CITY           SKY/WX    TMP DP  RH WIND       PRES   REMARKS
Hazleton       CLEAR     30  14  51 SW3       30.24S
Scranton       CLEAR     29  18  63 CALM      30.24R
$$
&&
KEY
WCI = Wind Chill Index
VSB = Visibility
HX  = Heat Index
$$



USA.gov is the U.S. government's official web portal to all federal, state and local government web resources and services.